Regional Weather Roundup
Issued by NWS

Home | Current Version | Previous Version | Graphics & Text | Print | Product List | Glossary Off
Versions: 1 2 3 4 5 6 7 8 9 10 11 12 13 14 15 16 17 18 19 20 21 22 23 24 25 26 27 28 29 30 31 32 33 34 35 36 37 38 39 40 41 42 43 44 45 46 47 48 49 50

000
ASUS43 KLSX 041607
RWRMO

WEATHER SUMMARY FOR MISSOURI
NATIONAL WEATHER SERVICE SPRINGFIELD MO
1100 AM CDT SAT JUL 04 2015

NOTE: "FAIR" INDICATES FEW OR NO CLOUDS BELOW 12,000 FEET WITH NO
       SIGNIFICANT WEATHER AND/OR OBSTRUCTIONS TO VISIBILITY.
       CURRENT SKY AND/OR WEATHER CONDITIONS ARE NOT AVAILABLE FOR
       CHILLICOTHE AND FARMINGTON.

MOZ001>031-035>038-043-044-053-054-041700-
...NORTHERN AND WESTERN MISSOURI...

CITY           SKY/WX    TMP DP  RH WIND       PRES   REMARKS
KANSAS CTY INT PTSUNNY   75  61  61 S5        30.03S
KANSAS C DTWN  SUNNY     77  62  59 S6        30.02S
LEE`S SUMMIT   SUNNY     75  61  61 E6        30.04S
ST JOSEPH      SUNNY     76  62  62 S3        30.03S
CHILLICOTHE      N/A     77  61  57 VRB5      30.04F
KIRKSVILLE     SUNNY     75  62  64 SE7       30.05S

$$
MOZ066>068-077>081-088>096-101>105-041700-
...SOUTHWEST MISSOURI...

CITY           SKY/WX    TMP DP  RH WIND       PRES   REMARKS
SPRINGFIELD    MOSUNNY   77  63  61 SE5       30.02S
JOPLIN         MOSUNNY   80  68  66 SE7       30.00F

$$
MOZ032>034-039>042-045>050-055>058-069>072-041700-
...CENTRAL MISSOURI...

CITY           SKY/WX    TMP DP  RH WIND       PRES   REMARKS
COLUMBIA       PTSUNNY   77  65  66 S3        30.04S
JEFFERSON CITY SUNNY     76  65  68 E5        30.02F
ROLLA          MOSUNNY   75  66  73 E5        30.03F
SEDALIA        SUNNY     77  61  57 SE6       30.05S
WHITEMAN AFB   SUNNY     76  62  60 VRB2      30.03S
WARRENSBURG    SUNNY     77  61  57 SE5       30.03S
OSAGE BEACH    PTSUNNY   75  64  69 CALM      30.03S

$$
MOZ051-052-059>065-041700-
...EAST CENTRAL MISSOURI...

CITY           SKY/WX    TMP DP  RH WIND       PRES   REMARKS
ST LOUIS INTL  MOSUNNY   79  62  56 CALM      30.03F
SPIRIT OF STL  MOSUNNY   77  66  68 VRB3      30.02S
ST CHARLES     MOSUNNY   78  64  61 VRB3      30.02F

$$
MOZ072>076-082>087-097>100-106>115-041700-
...SOUTH CENTRAL AND SOUTHEAST MISSOURI...

CITY           SKY/WX    TMP DP  RH WIND       PRES   REMARKS
CAPE GIRARDEAU MOSUNNY   77  69  76 E6        30.00F
FARMINGTON     MOSUNNY   73  68  83 E6        30.07F
POPLAR BLUFF   CLOUDY    77  70  79 NE6       30.00R HAZE
WEST PLAINS    PTSUNNY   76  67  73 E5        30.04S

$$


USA.gov is the U.S. government's official web portal to all federal, state and local government web resources and services.